DW1920 Weather Reports


time (UTC)temp
F
wind
direction
speed
knots
gust
knots
rain 1hr
in
rain 24hr
in
rain mn
in
humidity
%
barometer
mb
20181018030001 44 287 7.8 13.0 0.00 0.00 0.00 61 1009.6
20181018025002 44 281 7.8 13.9 0.00 0.00 0.00 61 1009.5
20181018024003 44 285 10.4 14.8 0.00 0.00 0.00 60 1009.5
20181018023001 44 280 11.3 15.6 0.00 0.00 0.00 60 1009.3
20181018022002 45 284 7.8 16.5 0.00 0.00 0.00 62 1009.2
20181018021003 45 281 11.3 18.2 0.00 0.00 0.00 61 1008.9
20181018020002 45 291 8.7 18.2 0.00 0.00 0.00 62 1008.8
20181018015002 45 289 13.0 20.9 0.00 0.00 0.00 62 1008.8
20181018014002 45 291 13.9 18.2 0.00 0.00 0.00 63 1008.8
20181018013002 46 289 9.6 16.5 0.00 0.00 0.00 65 1008.6
20181018012002 46 282 10.4 20.9 0.00 0.00 0.00 64 1008.4
20181018011002 46 290 14.8 22.6 0.00 0.00 0.00 64 1008.5
20181018010001 46 290 12.2 24.3 0.00 0.00 0.00 66 1008.3
20181018005002 47 293 11.3 20.0 0.00 0.00 0.00 66 1008.3
20181018004002 47 286 12.2 20.0 0.00 0.00 0.00 65 1008.0
20181018003002 47 286 11.3 21.7 0.00 0.00 0.00 65 1007.9
20181018002002 47 292 13.0 22.6 0.00 0.00 0.00 66 1008.0
20181018001001 47 292 12.2 20.9 0.00 0.00 0.00 67 1007.8
20181018000002 47 281 9.6 17.4 0.00 0.00 0.00 70 1007.6
20181017235002 47 289 13.0 24.3 0.00 0.00 0.00 70 1007.5
20181017234002 48 282 11.3 16.5 0.00 0.00 0.00 75 1007.2
20181017233002 48 275 8.7 13.0 0.00 0.00 0.00 78 1007.2
20181017232002 48 274 7.0 12.2 0.00 0.00 0.00 77 1007.1
20181017231002 48 278 8.7 13.0 0.00 0.00 0.00 76 1006.8
20181017230002 48 274 7.0 11.3 0.00 0.00 0.00 76 1006.8
20181017225001 48 282 7.8 13.0 0.00 0.00 0.00 76 1006.4
20181017224002 48 285 8.7 13.9 0.00 0.00 0.00 77 1006.5
20181017223002 49 273 8.7 17.4 0.00 0.00 0.00 76 1006.2
20181017222002 49 271 10.4 14.8 0.00 0.00 0.00 75 1006.0
20181017221002 49 271 7.8 20.9 0.00 0.00 0.00 74 1005.8
20181017220002 50 274 15.6 23.5 0.00 0.00 0.00 70 1006.1
20181017215001 51 275 16.5 29.5 0.00 0.00 0.00 70 1005.9
20181017214002 52 278 16.5 29.5 0.00 0.00 0.00 66 1005.6
20181017213002 54 301 11.3 24.3 0.00 0.00 0.00 65 1005.1
20181017212001 55 280 12.2 22.6 0.00 0.00 0.00 60 1004.6
20181017211002 55 273 13.9 20.0 0.00 0.00 0.00 59 1004.4
20181017210001 55 266 13.0 20.0 0.00 0.00 0.00 59 1004.1
20181017205002 56 264 10.4 19.1 0.00 0.00 0.00 62 1004.1
20181017204002 56 267 11.3 17.4 0.00 0.00 0.00 60 1003.9
20181017203001 57 265 9.6 16.5 0.00 0.00 0.00 61 1003.9
20181017202002 57 265 13.9 24.3 0.00 0.00 0.00 59 1003.9
20181017201002 56 268 11.3 22.6 0.00 0.00 0.00 60 1003.9
20181017200002 56 268 12.2 19.1 0.00 0.00 0.00 62 1004.0
20181017195002 55 253 8.7 18.2 0.00 0.00 0.00 68 1004.0
20181017194002 55 259 8.7 20.0 0.00 0.00 0.00 66 1004.0
20181017193002 55 250 8.7 16.5 0.00 0.00 0.00 74 1004.1
20181017192001 56 256 7.8 14.8 0.00 0.00 0.00 74 1004.1
20181017191003 55 234 10.4 18.2 0.00 0.00 0.00 76 1004.2
20181017190002 55 249 8.7 17.4 0.00 0.00 0.00 75 1004.3
20181017185001 55 240 9.6 15.6 0.00 0.00 0.00 75 1004.2
20181017184002 55 250 8.7 20.9 0.00 0.00 0.00 73 1004.3
20181017183002 54 261 10.4 18.2 0.00 0.00 0.00 74 1004.5
20181017182002 55 242 8.7 18.2 0.00 0.00 0.00 75 1004.4
20181017181002 54 251 8.7 14.8 0.00 0.00 0.00 76 1004.5
20181017180002 54 251 7.8 17.4 0.00 0.00 0.00 75 1004.7
20181017175002 54 250 8.7 14.8 0.00 0.00 0.00 76 1004.6
20181017174002 53 248 9.6 15.6 0.00 0.00 0.00 76 1004.8
20181017173002 53 254 8.7 14.8 0.00 0.00 0.00 75 1004.8
20181017172002 53 244 8.7 18.2 0.00 0.00 0.00 75 1005.0
20181017171002 53 240 8.7 14.8 0.00 0.00 0.00 75 1005.1
20181017170001 53 248 8.7 14.8 0.00 0.00 0.00 75 1005.3
20181017165002 53 233 7.8 15.6 0.00 0.00 0.00 76 1005.4
20181017164002 53 236 7.8 15.6 0.00 0.00 0.00 76 1005.7
20181017163003 53 250 7.8 13.9 0.00 0.00 0.00 75 1006.0
20181017162002 53 246 8.7 13.9 0.00 0.00 0.00 75 1006.2
20181017161002 52 253 7.0 17.4 0.00 0.00 0.00 77 1006.2
20181017160002 52 242 7.8 13.0 0.00 0.00 0.00 77 1006.6
20181017155002 52 248 8.7 20.0 0.00 0.00 0.00 77 1007.0
20181017154002 52 246 7.8 16.5 0.00 0.00 0.00 76 1007.2
20181017153001 52 234 7.8 20.0 0.00 0.00 0.00 76 1007.4
20181017152002 52 230 11.3 20.0 0.00 0.00 0.00 77 1007.4
20181017151002 52 227 10.4 16.5 0.00 0.00 0.00 78 1007.6
20181017150002 52 231 10.4 16.5 0.00 0.00 0.00 77 1008.0
20181017145002 52 242 8.7 14.8 0.00 0.00 0.00 76 1008.2
20181017144002 52 249 7.8 17.4 0.00 0.00 0.00 77 1008.4
20181017143002 52 236 7.8 15.6 0.00 0.00 0.00 77 1008.6
20181017142002 52 244 7.8 17.4 0.00 0.00 0.00 77 1008.7
20181017141002 52 250 8.7 16.5 0.00 0.00 0.00 76 1008.9
20181017140001 52 253 7.0 16.5 0.00 0.00 0.00 74 1009.2
20181017135002 52 257 8.7 13.9 0.00 0.00 0.00 75 1009.2
20181017134002 52 248 8.7 18.2 0.00 0.00 0.00 75 1009.0
20181017133002 52 252 8.7 16.5 0.00 0.00 0.00 76 1009.0
20181017132002 53 243 9.6 14.8 0.00 0.00 0.00 77 1009.1
20181017131002 53 248 7.0 19.1 0.00 0.00 0.00 76 1009.3
20181017130002 52 229 12.2 20.0 0.00 0.00 0.00 74 1009.4
20181017125006 52 232 11.3 19.1 0.00 0.00 0.00 74 1009.5
20181017124002 52 225 13.0 17.4 0.00 0.00 0.00 74 1009.8
20181017123002 52 228 11.3 16.5 0.00 0.00 0.00 76 1009.9
20181017122008 52 236 7.0 14.8 0.00 0.00 0.00 76 1010.1
20181017121002 52 236 6.1 12.2 0.00 0.00 0.00 75 1010.2
20181017120002 51 247 4.3 13.9 0.00 0.00 0.00 75 1010.4
20181017115002 51 241 6.1 11.3 0.00 0.00 0.00 75 1010.4
20181017114002 51 244 7.0 12.2 0.00 0.00 0.00 73 1010.3
20181017113002 51 255 8.7 13.9 0.00 0.00 0.00 72 1010.3
20181017112002 51 255 8.7 13.0 0.00 0.00 0.00 72 1010.4
20181017111002 50 248 7.0 15.6 0.00 0.00 0.00 75 1010.5
20181017110001 50 256 10.4 15.6 0.00 0.00 0.00 75 1010.7
20181017105002 50 255 7.8 13.0 0.00 0.00 0.00 76 1010.7
20181017104002 49 252 7.0 13.0 0.00 0.00 0.00 75 1010.8
20181017103002 49 250 4.3 8.7 0.00 0.00 0.00 74 1011.0
20181017102002 49 265 5.2 9.6 0.00 0.00 0.00 74 1011.5
20181017101001 49 263 7.0 10.4 0.00 0.00 0.00 74 1011.5
20181017100002 48 252 3.5 9.6 0.00 0.00 0.00 74 1011.6
20181017095002 48 264 5.2 8.7 0.00 0.00 0.00 73 1011.6
20181017094002 48 269 5.2 10.4 0.00 0.00 0.00 73 1011.7
20181017093002 48 263 6.1 12.2 0.00 0.00 0.00 72 1011.8
20181017092002 48 266 6.1 9.6 0.00 0.00 0.00 71 1011.9
20181017091001 48 269 5.2 8.7 0.00 0.00 0.00 72 1012.1
20181017090004 48 274 6.1 9.6 0.00 0.00 0.00 71 1012.1
20181017085002 48 259 6.1 12.2 0.00 0.00 0.00 71 1012.1
20181017084003 48 270 8.7 13.0 0.00 0.00 0.00 70 1012.3
20181017083002 48 271 7.8 12.2 0.00 0.00 0.00 71 1012.3
20181017082002 48 268 8.7 13.0 0.00 0.00 0.00 71 1012.3
20181017081002 48 268 8.7 13.0 0.00 0.00 0.00 71 1012.4
20181017080002 48 264 7.8 14.8 0.00 0.00 0.00 72 1012.5
20181017075003 48 268 7.8 12.2 0.00 0.00 0.00 71 1012.5
20181017074002 48 256 4.3 8.7 0.00 0.00 0.00 72 1012.6
20181017073002 48 257 4.3 12.2 0.00 0.00 0.00 72 1012.5
20181017072002 47 262 6.1 10.4 0.00 0.00 0.00 71 1012.6
20181017071002 47 265 5.2 9.6 0.00 0.00 0.00 72 1012.6
20181017070002 47 264 6.1 7.8 0.00 0.00 0.00 72 1012.7
20181017065002 47 266 4.3 7.8 0.00 0.00 0.00 73 1012.8
20181017064002 47 269 6.1 7.8 0.00 0.00 0.00 72 1013.0
20181017063002 47 275 5.2 7.8 0.00 0.00 0.00 72 1013.1
20181017062002 47 272 5.2 9.6 0.00 0.00 0.00 71 1013.2
20181017061002 47 269 3.5 6.1 0.00 0.00 0.00 72 1013.2
20181017060003 48 270 4.3 7.0 0.00 0.00 0.00 71 1013.3
20181017055002 48 259 4.3 10.4 0.00 0.00 0.00 71 1013.5
20181017054002 48 273 8.7 10.4 0.00 0.00 0.00 71 1013.6
20181017053002 47 277 5.2 9.6 0.00 0.01 0.00 74 1013.7
20181017052002 45 264 5.2 9.6 0.00 0.02 0.00 77 1013.7
20181017051002 44 288 3.5 6.1 0.00 0.03 0.00 80 1013.9
20181017050002 43 225 0.9 5.2 0.00 0.04 0.00 81 1014.0
20181017045002 42 212 1.7 3.5 0.00 0.05 0.00 81 1014.1
20181017044002 42 205 1.7 3.5 0.00 0.06 0.00 83 1014.1
20181017043002 41 231 2.6 3.5 0.00 0.07 0.00 83 1014.2
20181017042002 40 242 1.7 3.5 0.00 0.07 0.00 83 1014.3
20181017041002 40 259 0.9 1.7 0.00 0.07 0.00 82 1014.4
20181017040002 40 259 0.0 2.6 0.00 0.07 0.07 82 1014.3
20181017035002 40 261 0.9 2.6 0.00 0.07 0.07 81 1014.3
20181017034002 40 212 0.9 3.5 0.00 0.07 0.07 81 1014.5
20181017033002 40 3 0.0 2.6 0.00 0.07 0.07 80 1014.4
20181017032002 40 3 1.7 2.6 0.00 0.07 0.07 79 1014.5
20181017031003 40 3 0.0 0.9 0.00 0.07 0.07 78 1014.4